Theta_e
315 317 322 323 321 322 325 330 332 332 333 334 335 336 337 339 351 363 357 356 357 349 348 351 349 346 345 343 342 343 342 337 333 326 320 321 323 326 327 323 323 328 331 336 332 332 335 333 330
314 326 326 321 319 321 324 328 331 333 333 334 333 334 335 338 352 353 355 359 358 345 348 350 348 344 343 341 340 342 342 337 334 327 321 321 322 325 326 323 326 330 333 336 335 332 328 326 325
323 329 323 322 321 321 322 326 330 332 333 334 333 333 333 341 351 354 355 359 358 350 349 350 348 344 342 338 337 341 342 337 335 329 322 322 323 325 324 323 327 331 332 331 330 332 328 323 323
321 324 322 322 322 323 323 324 325 327 328 334 334 333 333 351 352 355 356 360 358 353 350 350 348 343 340 335 336 339 342 338 336 330 324 322 324 328 333 333 327 326 328 331 333 326 322 322 322
323 323 322 323 323 323 325 326 326 326 327 331 334 333 336 348 353 354 355 359 360 356 351 350 348 342 338 334 335 339 341 339 337 331 325 323 325 329 334 336 338 335 336 335 327 324 324 322 322
322 322 324 324 324 325 326 325 325 326 326 327 330 333 338 345 349 353 354 359 360 357 354 349 348 341 338 334 336 339 340 339 337 331 326 323 325 327 329 327 329 330 328 327 326 326 326 324 322
320 323 322 322 322 324 326 326 326 326 326 325 327 329 339 345 349 353 355 358 360 358 356 348 346 340 336 333 335 337 340 338 335 329 327 323 325 327 327 327 328 326 325 325 325 325 325 323 322
317 320 322 323 322 322 324 325 326 327 326 325 324 326 334 349 350 353 354 358 359 358 357 349 344 338 336 334 335 336 337 334 331 328 326 323 325 327 328 327 326 325 325 324 323 322 321 322 325
317 319 321 321 322 323 323 325 325 326 326 325 324 324 339 348 349 352 355 357 359 359 357 350 342 338 334 331 333 333 332 333 330 328 325 322 326 328 328 326 326 326 323 323 322 321 321 324 328
315 318 318 320 321 321 322 323 323 325 325 324 324 324 329 339 343 348 355 357 358 357 353 348 342 336 332 330 328 330 329 327 327 325 322 324 332 328 334 328 327 324 323 322 322 322 326 326 337
314 316 317 318 318 319 320 320 320 322 324 324 323 323 323 327 336 343 350 355 358 356 352 348 342 335 342 334 330 326 325 324 323 321 321 329 340 337 343 339 332 325 327 327 328 325 334 340 342
315 314 314 315 316 317 318 318 318 321 323 324 324 323 322 323 327 341 347 352 357 356 352 348 343 339 342 339 329 328 324 321 320 321 323 339 342 342 340 340 330 328 330 335 338 338 342 344 339
316 316 316 315 315 314 315 316 317 319 322 323 323 323 323 323 323 329 342 348 357 356 353 349 346 339 342 341 331 329 326 324 325 328 325 341 344 343 339 341 339 339 339 337 339 337 343 346 345
316 316 316 315 315 315 315 315 315 317 320 322 321 322 323 323 323 325 338 342 350 356 353 350 348 343 345 343 337 337 335 331 335 328 326 338 341 345 340 341 339 339 337 338 340 341 343 345 345
316 317 317 317 316 316 315 315 315 315 317 320 320 320 322 323 323 324 326 339 343 352 353 350 348 346 346 344 343 343 341 340 342 341 330 342 340 342 339 340 336 338 337 338 344 345 346 345 344
316 316 316 316 316 316 315 314 315 315 315 316 317 318 320 322 323 323 324 325 341 354 348 351 349 346 347 346 348 345 346 346 346 345 345 340 339 342 337 339 338 337 336 340 340 342 344 345 346
317 318 318 317 317 317 315 314 316 315 316 316 316 317 318 320 323 323 323 324 327 357 351 350 351 347 349 349 348 349 349 348 347 347 347 342 343 343 333 337 337 336 337 342 343 344 345 346 345
318 318 318 318 319 317 316 315 316 315 316 316 317 317 316 318 320 322 323 323 326 357 351 350 335 351 348 351 349 350 349 348 347 348 348 345 345 345 336 336 337 336 341 343 347 345 344 341 343
319 320 319 319 318 318 317 317 317 317 316 316 317 317 317 317 318 320 323 323 327 351 355 354 354 352 349 351 350 350 350 350 347 346 348 347 345 344 332 339 340 341 339 344 343 341 342 342 335
319 319 319 318 318 319 318 319 317 317 317 316 317 317 319 318 318 320 323 324 327 344 353 354 353 353 351 351 350 351 348 348 345 346 347 347 345 343 332 341 344 343 338 341 341 343 341 336 331
320 320 320 319 319 319 318 319 320 317 318 317 316 317 318 319 320 321 324 324 324 344 349 355 354 352 351 351 349 351 347 345 346 346 348 345 344 343 339 339 341 341 338 339 342 341 338 332 332
318 318 319 320 319 320 320 322 320 319 319 320 318 316 317 318 320 322 324 325 324 346 350 352 353 354 352 350 352 348 346 346 347 346 345 344 344 343 343 342 334 336 340 341 339 337 335 332 332
319 318 319 321 321 321 322 320 320 319 320 320 320 317 317 317 319 321 324 325 330 348 352 351 353 353 353 351 348 349 347 346 348 346 344 344 344 345 342 339 338 338 337 334 333 332 332 330 328
318 318 319 320 321 325 320 320 321 320 321 319 321 319 317 317 318 320 322 324 343 351 351 351 354 352 352 348 350 346 347 345 346 344 343 343 341 342 341 340 336 329 332 333 331 329 330 330 320
320 321 326 326 326 324 318 319 321 320 320 321 320 318 318 317 317 319 321 325 338 349 348 352 353 350 350 350 347 347 347 345 345 344 339 340 342 340 339 332 328 330 330 331 331 329 323 317 314
321 322 322 323 325 322 318 324 321 321 321 320 319 318 319 318 317 318 321 324 352 352 351 350 351 349 334 349 348 346 347 343 342 337 343 341 340 338 335 329 329 330 329 329 323 319 316 313 310
318 322 319 320 320 324 319 318 321 319 320 320 319 318 319 319 317 318 320 323 348 353 350 350 351 348 348 349 347 348 344 337 340 342 339 337 335 333 330 328 330 329 327 320 317 314 312 310 312
317 317 323 320 321 320 319 320 318 319 320 319 320 320 318 319 318 318 320 323 348 352 350 351 352 346 351 347 345 342 338 341 341 339 337 336 333 331 329 330 329 326 320 316 314 314 309 312 319
318 320 320 319 320 322 320 317 318 319 319 318 319 320 318 318 318 318 320 328 350 346 350 351 350 351 350 346 342 343 343 343 338 337 335 333 331 329 329 328 324 318 316 314 310 314 317 320 319
316 320 319 322 317 319 320 321 318 318 317 317 319 319 319 317 318 319 324 343 347 350 351 349 350 350 346 342 343 344 341 340 337 335 331 330 328 328 325 321 318 316 313 311 316 318 321 321 319
Wind_Speed
9 4 4 9 6 8 17 21 21 24 24 14 10 10 15 14 10 5 7 10 20 21 34 31 26 23 21 19 17 18 16 14 13 14 15 17 17 16 16 18 18 17 15 13 11 9 7 7 6
9 7 11 11 9 14 16 21 24 21 24 4 5 6 12 11 24 24 20 19 17 19 34 31 26 23 21 19 18 18 17 15 14 13 15 17 17 16 16 17 16 15 13 11 8 5 5 5 4
8 5 12 6 14 17 18 21 21 23 25 11 5 10 15 6 21 16 20 24 20 16 33 31 27 23 22 20 18 18 17 16 14 13 15 16 17 17 16 15 14 13 11 9 6 4 2 3 3
5 9 12 12 22 21 27 22 27 28 33 16 8 10 9 9 7 15 21 23 16 20 34 32 27 23 22 20 19 19 18 17 14 13 14 16 17 16 14 13 12 11 10 7 5 3 2 2 1
13 14 13 17 25 26 23 25 27 20 25 11 11 14 5 11 12 15 21 21 20 21 31 32 28 25 22 21 19 20 18 17 14 13 14 16 16 15 13 11 10 10 8 6 4 3 2 1 1
15 18 16 19 25 26 23 29 31 25 24 14 18 15 4 15 14 16 19 21 20 23 24 33 29 25 23 20 20 20 19 17 15 14 14 16 16 14 12 10 9 8 7 6 5 3 2 2 3
18 14 21 25 25 25 23 29 22 22 24 17 18 19 9 16 19 18 19 22 21 23 23 33 30 27 24 21 20 20 19 17 15 14 14 16 15 13 11 10 8 6 6 5 4 4 3 3 3
25 15 27 25 22 28 26 32 32 27 27 22 19 19 7 18 16 17 18 21 24 22 24 32 32 30 27 25 23 21 19 18 16 15 16 16 15 13 11 9 6 5 5 5 4 4 4 2 0
22 16 19 27 27 25 30 25 31 33 20 19 21 25 7 16 12 13 18 21 25 23 18 32 33 31 28 25 25 23 20 19 17 16 16 16 15 13 10 9 7 4 4 3 3 3 3 2 1
19 17 26 23 24 24 28 29 35 30 16 14 19 27 17 17 12 12 20 24 26 25 20 30 33 32 29 29 27 25 23 20 18 18 18 16 10 9 4 6 5 5 4 4 3 3 2 3 4
21 20 22 26 31 32 30 31 37 28 25 16 20 28 32 18 19 16 20 24 29 29 25 27 32 32 26 28 29 26 23 21 19 19 19 17 13 9 13 9 7 6 5 4 3 2 3 2 3
18 21 24 27 28 29 25 33 32 33 28 20 18 23 27 28 17 18 22 24 33 35 32 32 33 38 33 28 30 25 23 21 20 20 20 20 15 11 10 1 2 5 4 2 2 2 1 3 11
16 16 19 19 21 25 28 27 29 34 33 25 21 24 18 24 27 25 24 24 34 39 41 40 37 39 35 28 30 26 24 21 20 20 24 19 19 12 14 9 5 1 4 2 7 5 6 4 3
20 22 22 23 17 19 20 24 29 36 32 27 26 30 24 25 18 25 23 27 25 38 48 46 41 41 38 29 30 25 23 21 19 21 24 19 17 14 13 12 15 9 8 8 4 9 9 4 6
17 17 17 20 19 20 24 22 25 34 35 32 32 34 30 31 23 15 20 21 29 35 26 46 44 39 34 27 29 25 22 21 17 16 22 18 21 14 15 14 12 10 10 10 10 9 10 10 15
20 20 18 18 21 25 24 24 22 29 34 36 37 40 38 31 31 26 23 28 28 25 35 28 43 42 31 30 29 31 26 23 22 17 14 20 20 14 16 11 9 10 10 11 12 10 15 16 10
18 19 22 23 22 17 17 26 22 25 30 33 40 41 42 33 28 31 31 27 28 25 34 23 40 38 33 30 30 25 23 22 21 21 14 17 19 13 17 12 11 11 10 11 14 17 15 9 11
19 17 20 19 18 10 17 20 19 27 27 28 35 38 44 41 37 34 33 33 30 25 28 48 37 39 39 30 29 25 23 23 20 21 16 10 14 15 13 12 12 16 20 16 18 18 17 16 14
21 23 25 24 24 20 18 19 20 25 23 23 29 36 41 46 42 39 34 36 28 26 37 40 51 40 40 35 32 27 27 23 21 19 19 15 14 16 14 11 18 19 18 19 16 16 13 16 9
23 25 26 26 23 23 21 28 22 17 21 26 30 32 29 39 46 42 37 33 31 27 32 37 34 33 36 35 34 28 25 25 22 20 19 18 16 17 16 17 19 19 18 20 17 16 10 8 1
22 24 24 25 24 27 24 27 25 22 25 33 30 35 34 33 37 32 32 40 37 33 35 36 33 35 37 37 35 30 23 25 25 24 22 17 20 19 16 20 18 15 15 16 16 15 11 7 7
25 22 21 24 22 18 18 19 21 23 20 21 33 32 36 35 32 35 29 31 42 39 37 34 35 40 43 39 36 33 32 32 26 26 20 20 20 20 21 14 11 11 12 11 9 11 11 11 6
26 23 16 17 20 17 25 14 23 17 24 25 20 31 36 39 29 26 31 32 35 44 44 37 43 43 45 44 41 36 32 30 28 27 25 25 23 19 13 12 11 7 7 3 3 3 8 5 2
25 24 21 15 13 15 20 16 23 21 25 21 26 31 41 41 36 34 35 35 38 48 43 39 44 49 45 41 36 40 40 38 36 29 28 21 20 17 13 11 7 3 6 7 3 5 4 2 2
14 14 4 9 9 16 13 17 20 23 23 30 20 30 43 45 44 44 41 33 41 42 41 47 46 47 44 37 42 44 39 37 35 31 26 26 20 17 16 12 15 17 14 10 5 2 2 2 2
7 8 6 6 4 8 18 7 13 22 25 29 26 36 34 47 48 46 40 39 43 47 48 46 49 47 41 41 48 42 38 34 34 28 26 19 20 19 18 18 17 13 9 5 4 3 4 4 6
4 7 2 6 11 14 18 23 14 22 18 19 20 11 32 36 47 46 42 46 47 50 50 49 50 50 55 46 47 39 38 34 29 25 27 26 18 20 19 17 13 10 7 6 5 5 6 6 7
14 9 5 4 6 16 13 17 12 12 9 13 18 15 27 19 42 44 46 45 47 49 51 51 51 53 49 51 47 41 35 30 31 33 28 20 21 22 19 16 11 8 8 6 5 6 6 7 4
4 5 8 8 8 7 13 10 6 8 8 2 19 27 23 25 23 45 42 37 49 49 55 56 57 51 50 45 43 38 34 36 34 29 26 28 25 20 18 14 11 10 8 6 6 7 11 12 10
18 15 15 6 9 12 13 13 12 7 8 5 16 25 18 27 33 37 34 43 46 52 59 57 58 54 51 46 43 40 37 35 31 32 29 29 23 20 17 15 12 9 8 8 9 9 10 5 6
Wind_Direction
250 238 289 273 244 229 248 244 247 265 279 281 296 327 321 358 115 141 167 137 182 159 162 161 160 162 161 166 169 165 167 164 156 147 140 136 138 141 140 138 140 143 144 142 130 125 138 134 129
217 249 249 267 239 242 244 242 253 252 252 275 1 277 286 299 101 144 169 146 186 150 163 162 164 162 163 165 172 170 171 170 159 152 145 140 140 140 140 142 147 151 153 154 153 134 120 132 130
174 206 243 223 238 242 254 257 253 234 257 231 163 259 267 79 112 120 151 153 182 165 168 166 165 164 165 165 173 174 174 173 165 156 150 145 141 142 144 145 154 161 166 170 168 159 139 128 132
251 223 247 255 246 236 241 263 281 290 298 202 194 248 195 80 82 124 137 149 161 165 174 168 166 164 165 164 171 178 177 176 170 162 157 152 148 147 147 150 160 165 169 170 172 175 155 145 117
244 255 235 243 245 250 261 265 255 268 272 271 207 237 221 122 128 127 141 155 150 157 178 169 167 165 166 165 172 181 177 178 175 169 163 159 154 155 158 157 164 172 178 181 179 178 189 174 222
239 230 248 242 249 259 257 249 266 275 274 280 268 230 216 134 139 146 149 158 155 162 177 170 168 167 165 167 175 179 179 182 179 174 170 165 162 165 167 167 171 178 182 193 196 207 219 237 252
242 238 242 251 257 263 259 250 249 246 261 255 262 279 190 159 148 149 153 158 161 176 182 175 169 167 169 167 176 179 182 184 185 180 176 171 170 172 174 174 182 184 198 200 208 217 223 239 265
249 252 260 255 255 260 267 274 274 245 250 236 242 258 248 94 126 143 155 161 161 179 190 180 172 171 172 174 177 180 185 188 187 183 179 175 175 179 182 188 199 206 214 215 214 216 213 217 259
243 251 252 253 257 268 275 276 274 275 265 211 245 258 136 118 138 151 161 166 163 169 184 183 176 174 175 178 178 181 185 190 187 183 179 176 183 187 188 201 192 214 225 210 201 198 185 177 82
245 244 252 258 269 281 285 283 286 279 259 216 244 257 233 156 159 175 172 175 170 168 172 176 178 177 179 182 178 181 184 187 186 183 177 176 179 189 202 202 209 203 194 169 165 153 134 84 39
240 251 265 267 278 286 296 300 300 300 283 200 229 243 254 194 162 193 198 189 179 175 169 179 179 174 171 185 177 179 181 183 184 182 177 157 179 187 203 234 230 197 185 163 94 90 76 101 11
245 257 267 275 275 281 285 293 294 289 276 300 250 232 252 248 201 194 209 202 180 174 174 180 184 171 176 183 179 178 177 179 181 182 171 151 179 206 184 275 193 201 152 168 342 334 132 203 268
275 276 279 281 280 278 276 272 277 283 286 296 301 293 272 260 222 199 210 217 187 178 179 181 185 175 176 182 176 177 179 180 182 184 172 161 184 207 172 207 253 84 226 171 228 207 231 282 277
289 296 289 289 285 278 277 279 269 270 278 283 288 289 278 279 264 192 193 223 210 186 179 175 180 167 183 177 172 175 179 178 183 191 180 179 172 208 182 195 193 188 197 228 246 242 237 257 256
291 281 278 265 262 261 264 264 264 266 262 269 270 274 270 269 279 234 231 226 241 207 177 171 172 166 177 174 167 163 172 168 183 186 179 178 184 198 204 200 210 182 206 209 219 222 239 227 250
278 272 271 268 253 244 233 258 253 252 260 260 260 268 269 255 260 265 238 243 238 222 211 175 166 170 171 168 172 164 169 178 178 186 194 185 182 207 197 190 204 189 211 230 255 244 247 225 230
255 253 252 257 245 245 243 241 242 248 245 244 246 252 261 260 247 245 251 243 248 207 187 180 178 171 172 175 169 164 173 177 177 181 198 193 188 210 187 174 208 202 201 222 225 222 232 219 241
272 283 286 284 292 293 258 258 253 252 256 250 240 237 237 252 247 247 236 238 232 210 175 180 197 179 176 178 172 167 178 174 173 183 200 204 187 201 188 169 211 200 201 226 232 233 239 244 242
274 272 277 281 288 278 260 256 267 276 243 258 244 236 237 229 239 237 237 224 232 206 185 187 169 175 174 173 171 178 178 171 175 180 193 201 187 198 190 185 215 217 219 227 240 245 234 239 243
276 279 276 278 280 278 272 281 257 255 283 249 271 247 254 219 227 230 224 216 219 206 200 190 179 183 176 176 171 179 175 171 173 186 195 204 186 201 189 200 219 227 236 233 238 227 217 216 182
253 259 271 277 282 279 278 264 263 253 257 258 243 264 262 231 218 223 215 205 215 203 211 192 188 191 183 182 168 176 174 168 173 186 192 195 190 202 202 210 222 231 238 235 230 219 222 218 268
276 267 273 295 269 265 266 273 264 271 263 244 248 242 254 265 211 219 217 210 202 196 204 200 192 195 186 183 174 174 171 171 176 189 189 183 190 188 200 207 223 220 230 231 250 264 251 262 297
277 290 274 283 272 277 257 265 271 247 250 252 255 226 243 251 247 225 221 217 196 191 199 198 194 193 187 180 173 173 168 169 178 186 186 188 192 189 193 197 202 210 246 256 148 210 227 185 246
267 264 264 256 269 260 255 248 263 256 256 249 242 220 223 233 239 235 233 213 192 192 194 195 193 192 184 176 178 171 176 177 178 183 184 177 177 165 192 198 157 113 135 165 162 139 154 275 333
337 283 267 231 216 248 270 249 246 260 251 249 228 239 214 215 222 226 235 221 197 187 195 193 191 184 181 177 177 180 180 182 186 189 179 172 179 189 168 146 142 128 131 141 148 141 104 18 349
304 268 226 283 248 293 287 259 282 265 245 261 252 228 218 203 208 219 224 223 181 184 191 192 186 179 175 186 185 182 182 179 181 181 166 174 176 161 156 158 149 150 141 126 128 111 69 13 352
248 236 300 285 276 272 261 266 238 271 270 250 252 242 257 202 200 211 215 221 185 179 190 187 180 173 175 182 180 178 175 171 163 154 162 173 163 159 162 155 159 151 131 117 90 48 25 17 26
246 255 216 196 258 264 256 273 257 231 210 343 321 215 251 253 197 203 213 218 180 183 186 184 183 176 174 180 177 164 162 161 156 164 166 162 150 154 159 161 152 135 122 106 56 34 28 50 59
228 218 211 252 244 269 286 287 23 349 32 310 299 310 223 243 260 198 211 206 181 185 187 180 173 169 172 169 157 158 157 158 163 156 158 154 151 156 152 144 144 132 107 83 70 50 57 49 30
272 232 231 227 247 240 256 271 279 300 301 301 288 290 278 228 239 203 206 183 184 178 179 178 170 159 161 153 159 159 155 153 150 150 153 148 143 142 140 131 122 113 96 79 78 96 83 88 45